Location: G�ndlingen
(48.0142°N, 7.6396°E)
Time: 08:34:32
(UTC+00:00)

COSMOS 2428 - Pass Details

Date: 05 July 2020
Orbit: 844 x 859 km, 70.9° (Epoch: 05 August)

Event Time Altitude Azimuth Distance (km) Brightness Sun altitude
Exits shadow 21:57:27 -1° 218° (SW) 3,452 5.6 -16.1°
Rises 21:57:36 0° 218° (SW) 3,391 5.6 -16.1°
Reaches altitude 10° 22:00:05 10° 222° (SW) 2,460 4.9 -16.2°
Maximum altitude 22:05:39 60° 302° (WNW) 966 3.2 -16.6°
Drops below altitude 10° 22:11:17 10° 22° (NNE) 2,479 5.8 -16.9°
Sets 22:13:47 0° 27° (NNE) 3,420 6.5 -17.0°
